Weather History for KDEN - April, 2012

Change the Weather History Date:

Friday, April 13, 2012

  Actual Average Record
Temperature  
Mean Temperature 49 °F 47 °F  
Max Temperature 64 °F 61 °F 85 °F (2006)
Min Temperature 34 °F 33 °F 17 °F (1933)
Degree Days  
Heating Degree Days 16 18  
Month to date heating degree days 177 255  
Since 1 July heating degree days 5040 5457  
Cooling Degree Days 0 0  
Month to date cooling degree days 0 0  
Year to date cooling degree days 0 0  
Growing Degree Days 2 (Base 50)    
Moisture  
Dew Point 22 °F    
Average Humidity 52    
Maximum Humidity 92    
Minimum Humidity 11    
Precipitation  
Precipitation 0.00 in 0.06 in 3.25 in (1967)
Month to date precipitation 0.63 0.57  
Year to date precipitation 1.82 2.27  
Snow  
Snow 0.00 in - - ()
Month to date snowfall 1  
Since 1 July snowfall 55.6  
Snow Depth 0.00 in    
Sea Level Pressure  
Sea Level Pressure 29.65 in    
Wind  
Wind Speed 12 mph (SSW)    
Max Wind Speed 31 mph    
Max Gust Speed 38 mph    
Visibility 10 miles    
Events      
T = Trace of Precipitation, MM = Missing Value Source: NWS Daily Summary

Daily Weather History Graph

Daily Weather History Graph

Search for Another Location

Airport or City:

Trip Planner

Search our weather history database for the weather conditions in past years. The results will help you decide how hot, cold, wet, or windy it might be!

Date:

Astronomy

Apr. 13, 2012 Rise Set
Actual Time 6:23 AM MDT 7:35 PM MDT
Civil Twilight 5:55 AM MDT 8:03 PM MDT
Nautical Twilight 5:22 AM MDT 8:36 PM MDT
Astronomical Twilight 4:47 AM MDT 9:11 PM MDT
Moon 2:08 AM MDT (4/13) 12:28 PM MDT (4/13)
Length of Visible Light 14h 08m
Length of Day
13h 12m
Waning Gibbous, 47% of the Moon is Illuminated
Apr 13
Waning Gibbous
Apr 21
New
Apr 29
First Quarter
May 5
Full
May 12
Last Quarter

Hourly Weather History & Observations

Time (MDT) Temp. Windchill Dew Point Humidity Pressure Visibility Wind Dir Wind Speed Gust Speed Precip Events Conditions
12:53 AM 39.9 °F 33.9 °F 34.0 °F 79% 29.65 in 10.0 mi SSE 9.2 mph - N/A   Overcast
1:53 AM 39.9 °F 34.5 °F 34.0 °F 79% 29.67 in 10.0 mi SSE 8.1 mph - N/A   Mostly Cloudy
2:53 AM 37.9 °F 33.5 °F 34.0 °F 86% 29.67 in 10.0 mi SE 5.8 mph - N/A   Mostly Cloudy
3:53 AM 36.0 °F 28.5 °F 33.1 °F 89% 29.68 in 10.0 mi ESE 10.4 mph - N/A   Mostly Cloudy
4:53 AM 35.1 °F 28.6 °F 32.0 °F 89% 29.69 in 10.0 mi South 8.1 mph - N/A   Scattered Clouds
5:53 AM 39.9 °F 33.4 °F 28.9 °F 65% 29.69 in 10.0 mi WSW 10.4 mph - N/A   Scattered Clouds
6:53 AM 39.9 °F 33.4 °F 28.0 °F 63% 29.73 in 10.0 mi West 10.4 mph - N/A   Scattered Clouds
7:53 AM 46.0 °F 41.0 °F 26.1 °F 46% 29.73 in 10.0 mi SW 10.4 mph - N/A   Scattered Clouds
8:53 AM 51.8 °F - 24.8 °F 35% 29.82 in 10.0 mi SW 13.8 mph - N/A   Scattered Clouds
9:53 AM 54.0 °F - 19.0 °F 25% 29.70 in 10.0 mi West 13.8 mph 20.7 mph N/A   Scattered Clouds
10:53 AM 57.0 °F - 16.0 °F 20% 29.68 in 10.0 mi WSW 19.6 mph 24.2 mph N/A   Scattered Clouds
11:53 AM 59.0 °F - 16.0 °F 19% 29.68 in 10.0 mi West 13.8 mph 27.6 mph N/A   Scattered Clouds
12:53 PM 61.0 °F - 14.0 °F 16% 29.66 in 10.0 mi NW 9.2 mph - N/A   Scattered Clouds
1:53 PM 62.1 °F - 6.1 °F 11% 29.63 in 10.0 mi NW 6.9 mph 20.7 mph N/A   Scattered Clouds
2:53 PM 62.6 °F - 8.6 °F 12% 29.73 in 10.0 mi South 8.1 mph - N/A   Scattered Clouds
3:53 PM 60.1 °F - 14.0 °F 16% 29.61 in 10.0 mi ENE 18.4 mph - N/A   Mostly Cloudy
4:53 PM 57.9 °F - 14.0 °F 18% 29.62 in 10.0 mi East 13.8 mph 32.2 mph N/A   Mostly Cloudy
5:53 PM 57.0 °F - 19.0 °F 23% 29.60 in 10.0 mi East 12.7 mph - N/A   Mostly Cloudy
6:53 PM 55.9 °F - 19.9 °F 25% 29.58 in 10.0 mi East 21.9 mph 27.6 mph N/A   Overcast
7:53 PM 54.0 °F - 19.9 °F 26% 29.56 in 10.0 mi ESE 8.1 mph - N/A   Overcast
8:12 PM 55.4 °F - 19.4 °F 25% 29.68 in 10.0 mi SSW 21.9 mph 26.5 mph N/A   Overcast
8:53 PM 54.0 °F - 21.0 °F 28% 29.60 in 10.0 mi SSW 18.4 mph 35.7 mph N/A   Overcast
9:53 PM 54.0 °F - 24.1 °F 31% 29.60 in 10.0 mi WSW 17.3 mph 31.1 mph N/A   Mostly Cloudy
10:53 PM 52.0 °F - 24.1 °F 34% 29.59 in 10.0 mi SSW 8.1 mph - N/A   Overcast
11:53 PM 50.0 °F - 25.0 °F 38% 29.59 in 10.0 mi WSW 4.6 mph - N/A   Scattered Clouds